Preston, Minnesota, United States (55965)
Lat: 43.67N, Lon: 92.08W
Wx Zone: MNZ095
Local Info
Past Weather Observations for Today

NOTE: This archive is for the closest National Weather Service station to Preston. Information may differ from the station used for current weather conditions.

Click here for Long-term Archive

Time Weather Temperature Dewpoint Humidity Pressure Winds Precip Visibility
22:11
Clear
59°F / 15°C 55°F / 13°C 88% 30.15 in
(1021 mb)
W 6.9 mph
(W 11 kph)
- 10SM
21:51
Clear
59°F / 15°C 57°F / 14°C 94% 30.15 in
(1021 mb)
WNW 6.9 mph
(WNW 11 kph)
- 10SM
21:30
Clear
61°F / 16°C 57°F / 14°C 88% 30.15 in
(1021 mb)
WNW 5.8 mph
(WNW 9 kph)
- 10SM
21:11
Clear
61°F / 16°C 57°F / 14°C 88% 30.15 in
(1021 mb)
W 5.8 mph
(W 9 kph)
- 10SM
20:51
Clear
61°F / 16°C 57°F / 14°C 88% 30.15 in
(1021 mb)
WNW 5.8 mph
(WNW 9 kph)
- 10SM
20:31
Clear
61°F / 16°C 57°F / 14°C 88% 30.15 in
(1021 mb)
W 5.8 mph
(W 9 kph)
- 10SM
20:11
Clear
63°F / 17°C 57°F / 14°C 83% 30.15 in
(1021 mb)
NW 4.6 mph
(NW 7 kph)
- 10SM
19:51
Clear
63°F / 17°C 59°F / 15°C 88% 30.15 in
(1021 mb)
WNW 4.6 mph
(WNW 7 kph)
- 10SM
19:30
Clear
64°F / 18°C 59°F / 15°C 83% 30.15 in
(1021 mb)
NW 4.6 mph
(NW 7 kph)
- 10SM
19:11
Clear
64°F / 18°C 59°F / 15°C 83% 30.15 in
(1021 mb)
NW 3.5 mph
(NW 6 kph)
- 10SM
18:51
Clear
66°F / 19°C 59°F / 15°C 78% 30.15 in
(1021 mb)
NW 3.5 mph
(NW 6 kph)
- 10SM
18:30
Clear
66°F / 19°C 59°F / 15°C 78% 30.15 in
(1021 mb)
Calm - 10SM
18:11
Clear
68°F / 20°C 59°F / 15°C 73% 30.15 in
(1021 mb)
NNW 5.8 mph
(NNW 9 kph)
- 10SM
17:51
Partly Cloudy
68°F / 20°C 59°F / 15°C 73% 30.15 in
(1021 mb)
NNW 4.6 mph
(NNW 7 kph)
- 10SM
17:31
Mostly Cloudy
68°F / 20°C 57°F / 14°C 69% 30.15 in
(1021 mb)
NNW 4.6 mph
(NNW 7 kph)
- 10SM
17:11
Mostly Cloudy
68°F / 20°C 57°F / 14°C 69% 30.15 in
(1021 mb)
N 9.2 mph
(N 15 kph)
- 10SM
16:51
Mostly Cloudy
70°F / 21°C 57°F / 14°C 64% 30.18 in
(1022 mb)
NNW 9.2 mph
(NNW 15 kph)
- 10SM
16:31
Partly Cloudy
70°F / 21°C 59°F / 15°C 69% 30.18 in
(1022 mb)
NW 9.2 mph
(NW 15 kph)
- 10SM
16:11
Partly Cloudy
68°F / 20°C 59°F / 15°C 73% 30.18 in
(1022 mb)
NW 6.9 mph
(NW 11 kph)
- 10SM
15:51
Mostly Cloudy
68°F / 20°C 59°F / 15°C 73% 30.18 in
(1022 mb)
NNW 5.8 mph
(NNW 9 kph)
- 10SM
15:31
Mostly Cloudy
68°F / 20°C 57°F / 14°C 69% 30.18 in
(1022 mb)
N 6.9 mph
(N 11 kph)
- 10SM
15:11
Partly Cloudy
70°F / 21°C 57°F / 14°C 64% 30.18 in
(1022 mb)
N 8.1 mph
(N 13 kph)
- 10SM
14:51
Partly Cloudy
70°F / 21°C 57°F / 14°C 64% 30.18 in
(1022 mb)
N 9.2 mph
(N 15 kph)
- 10SM
14:30
Mostly Cloudy
68°F / 20°C 57°F / 14°C 69% 30.18 in
(1022 mb)
N 6.9 mph
(N 11 kph)
- 10SM
14:10
Mostly Cloudy
70°F / 21°C 59°F / 15°C 69% 30.18 in
(1022 mb)
N 5.8 mph
(N 9 kph)
- 10SM
13:51
Overcast
68°F / 20°C 57°F / 14°C 69% 30.18 in
(1022 mb)
N 5.8 mph
(N 9 kph)
- 10SM
13:31
Overcast
68°F / 20°C 57°F / 14°C 69% 30.18 in
(1022 mb)
N 8.1 mph
(N 13 kph)
- 10SM
13:11
Overcast
68°F / 20°C 57°F / 14°C 69% 30.18 in
(1022 mb)
N 4.6 mph
(N 7 kph)
- 10SM
12:51
Mostly Cloudy
68°F / 20°C 57°F / 14°C 69% 30.18 in
(1022 mb)
NW 8.1 mph
(NW 13 kph)
- 10SM
12:31
Mostly Cloudy
68°F / 20°C 57°F / 14°C 69% 30.18 in
(1022 mb)
NNE 4.6 mph
(NNE 7 kph)
- 10SM
12:11
Mostly Cloudy
68°F / 20°C 55°F / 13°C 64% 30.18 in
(1022 mb)
NNE 4.6 mph
(NNE 7 kph)
- 10SM
11:51
Mostly Cloudy
68°F / 20°C 57°F / 14°C 69% 30.21 in
(1023 mb)
NE 4.6 mph
(NE 7 kph)
- 10SM
11:31
Mostly Cloudy
68°F / 20°C 57°F / 14°C 69% 30.21 in
(1023 mb)
NNE 5.8 mph
(NNE 9 kph)
- 10SM
11:10
Overcast
66°F / 19°C 57°F / 14°C 73% 30.21 in
(1023 mb)
NNW 5.8 mph
(NNW 9 kph)
- 10SM
10:51
Overcast
66°F / 19°C 59°F / 15°C 78% 30.21 in
(1023 mb)
N 6.9 mph
(N 11 kph)
- 10SM
10:31
Overcast
66°F / 19°C 57°F / 14°C 73% 30.21 in
(1023 mb)
NNE 6.9 mph
(NNE 11 kph)
- 10SM
10:10
Overcast
66°F / 19°C 59°F / 15°C 78% 30.21 in
(1023 mb)
N 3.5 mph
(N 6 kph)
- 10SM
09:51
Overcast
64°F / 18°C 59°F / 15°C 83% 30.21 in
(1023 mb)
N 4.6 mph
(N 7 kph)
- 10SM
09:31
Overcast
64°F / 18°C 61°F / 16°C 88% 30.21 in
(1023 mb)
WNW 5.8 mph
(WNW 9 kph)
- 10SM
09:10
Overcast
63°F / 17°C 61°F / 16°C 94% 30.21 in
(1023 mb)
NW 6.9 mph
(NW 11 kph)
- 10SM
08:51
Overcast
63°F / 17°C 61°F / 16°C 94% 30.21 in
(1023 mb)
NNW 6.9 mph
(NNW 11 kph)
- 10SM
08:31
Overcast
61°F / 16°C 61°F / 16°C 100% 30.21 in
(1023 mb)
N 5.8 mph
(N 9 kph)
- 10SM
08:11
Overcast
61°F / 16°C 59°F / 15°C 94% 30.21 in
(1023 mb)
N 3.5 mph
(N 6 kph)
- 10SM
07:51
Overcast
61°F / 16°C 61°F / 16°C 100% 30.21 in
(1023 mb)
NNW 4.6 mph
(NNW 7 kph)
- 10SM
07:30
Overcast
59°F / 15°C 59°F / 15°C 100% 30.21 in
(1023 mb)
NNW 5.8 mph
(NNW 9 kph)
- 10SM
07:11
Overcast
59°F / 15°C 59°F / 15°C 100% 30.21 in
(1023 mb)
NW 6.9 mph
(NW 11 kph)
- 10SM
06:51
Overcast
59°F / 15°C 59°F / 15°C 100% 30.18 in
(1022 mb)
NNW 6.9 mph
(NNW 11 kph)
- 10SM
06:30
Overcast
57°F / 14°C 57°F / 14°C 100% 30.18 in
(1022 mb)
NNW 4.6 mph
(NNW 7 kph)
- 10SM
06:11
Overcast
57°F / 14°C 57°F / 14°C 100% 30.18 in
(1022 mb)
Calm - 10SM
05:50
Overcast
55°F / 13°C 57°F / 14°C N/A 30.18 in
(1022 mb)
Calm - 10SM
05:31
Overcast
55°F / 13°C 55°F / 13°C 100% 30.18 in
(1022 mb)
Calm - 10SM
05:11
Overcast
55°F / 13°C 55°F / 13°C 100% 30.18 in
(1022 mb)
N 3.5 mph
(N 6 kph)
- 10SM
04:50
Overcast
55°F / 13°C 55°F / 13°C 100% 30.18 in
(1022 mb)
Calm - 10SM
04:31
Mostly Cloudy
55°F / 13°C 55°F / 13°C 100% 30.18 in
(1022 mb)
NNW 4.6 mph
(NNW 7 kph)
- 10SM
04:11
Mostly Cloudy
55°F / 13°C 55°F / 13°C 100% 30.15 in
(1021 mb)
Calm - 10SM
03:51
Overcast
55°F / 13°C 55°F / 13°C 100% 30.15 in
(1021 mb)
NNW 3.5 mph
(NNW 6 kph)
- 10SM
03:30
Overcast
55°F / 13°C 55°F / 13°C 100% 30.15 in
(1021 mb)
NW 4.6 mph
(NW 7 kph)
- 10SM
03:11
Mostly Cloudy
55°F / 13°C 55°F / 13°C 100% 30.15 in
(1021 mb)
NNW 4.6 mph
(NNW 7 kph)
- 10SM
02:51
Partly Cloudy
55°F / 13°C 55°F / 13°C 100% 30.15 in
(1021 mb)
NNW 4.6 mph
(NNW 7 kph)
- 10SM
02:31
Clear
55°F / 13°C 55°F / 13°C 100% 30.15 in
(1021 mb)
NNW 4.6 mph
(NNW 7 kph)
- 10SM
02:10
Partly Cloudy
55°F / 13°C 55°F / 13°C 100% 30.15 in
(1021 mb)
NNW 4.6 mph
(NNW 7 kph)
- 10SM
01:51
Overcast
55°F / 13°C 57°F / 14°C N/A 30.15 in
(1021 mb)
NNW 4.6 mph
(NNW 7 kph)
- 10SM
01:30
Overcast
55°F / 13°C 55°F / 13°C 100% 30.15 in
(1021 mb)
NNW 3.5 mph
(NNW 6 kph)
- 10SM
01:11
Mostly Cloudy
55°F / 13°C 55°F / 13°C 100% 30.15 in
(1021 mb)
N 3.5 mph
(N 6 kph)
- 10SM
00:50
Clear
55°F / 13°C 55°F / 13°C 100% 30.12 in
(1020 mb)
N 3.5 mph
(N 6 kph)
- 10SM
00:31
Clear
55°F / 13°C 55°F / 13°C 100% 30.12 in
(1020 mb)
N 3.5 mph
(N 6 kph)
- 10SM
00:11
Clear
55°F / 13°C 55°F / 13°C 100% 30.12 in
(1020 mb)
N 5.8 mph
(N 9 kph)
- 10SM
Time Weather Temperature Dewpoint Humidity Pressure Winds Precip Visibility


Weather for websites

WeatherForYou.com, LLC is not responsible for any damages or problems caused by this service. Current weather conditions are obtained from the closest station including government and personal stations which may have varying degrees of accuracy. Weather forecasts are derived from the NOAA NDFD. Like all things, this site belongs to Jesus Christ... He just trusts me to maintain it. If you have any questions or comments email webmaster@weatherforyou.com

Copyright © 2014, WeatherForYou.com LLC. All rights reserved.